FW3072 Weather Reports


time (UTC)temp
C
wind
direction
speed
KPH
gust
KPH
rain 1hr
cm
rain 24hr
cm
rain mn
cm
humidity
%
barometer
mb
20260906132204 18 359 4.8 9.7 0.00 0.00 0.00 93 1017.7
20260906131203 18 359 4.8 12.9 0.00 0.00 0.00 94 1017.7
20260906130204 17 359 6.4 9.7 0.00 0.00 0.00 94 1017.7
20260906125224 17 359 4.8 12.9 0.00 0.00 0.00 94 1017.7
20260906124204 17 359 0.0 12.9 0.00 0.00 0.00 94 1017.6
20260906123203 16 359 3.2 8.0 0.00 0.00 0.00 94 1017.6
20260906122205 16 360 0.0 0.0 0.00 0.00 0.00 94 1017.4
20260906121206 15 360 0.0 0.0 0.00 0.00 0.00 94 1017.3
20260906120203 15 360 0.0 0.0 0.00 0.00 0.00 94 1017.3
20260906115203 15 360 0.0 0.0 0.00 0.00 0.00 93 1017.1
20260906114203 15 360 0.0 0.0 0.00 0.00 0.00 94 1017.1
20260906113225 15 360 0.0 0.0 0.00 0.00 0.00 94 1017.0
20260906112204 14 360 0.0 0.0 0.00 0.00 0.00 93 1017.1
20260906111203 14 360 0.0 0.0 0.00 0.00 0.00 93 1016.9
20260906110205 14 360 0.0 0.0 0.00 0.00 0.00 93 1016.8
20260906105203 14 360 0.0 0.0 0.00 0.00 0.00 93 1016.7
20260906104206 14 360 0.0 0.0 0.00 0.00 0.00 92 1016.5
20260906103227 15 360 0.0 0.0 0.00 0.00 0.00 93 1016.5
20260906102204 15 360 0.0 0.0 0.00 0.00 0.00 92 1016.4
20260906101203 15 360 0.0 0.0 0.00 0.00 0.00 92 1016.3
20260906100204 15 360 0.0 0.0 0.00 0.00 0.00 92 1016.3
20260906095203 15 360 0.0 0.0 0.00 0.00 0.00 92 1016.1
20260906094204 15 360 0.0 0.0 0.00 0.00 0.00 92 1016.2
20260906093204 15 360 0.0 0.0 0.00 0.00 0.00 92 1016.1
20260906092205 15 360 0.0 0.0 0.00 0.00 0.00 92 1015.8
20260906091224 15 360 0.0 0.0 0.00 0.00 0.00 92 1015.7
20260906090203 15 360 0.0 0.0 0.00 0.00 0.00 92 1015.7
20260906085203 15 360 0.0 0.0 0.00 0.00 0.00 92 1015.6
20260906084204 16 360 0.0 0.0 0.00 0.00 0.00 92 1015.5
20260906083203 16 360 0.0 0.0 0.00 0.00 0.00 92 1015.4
20260906082203 16 360 0.0 0.0 0.00 0.00 0.00 92 1015.3
20260906081203 16 360 0.0 0.0 0.00 0.00 0.00 92 1015.2
20260906080204 16 360 0.0 0.0 0.00 0.00 0.00 92 1015.2
20260906075205 16 360 0.0 0.0 0.00 0.00 0.00 91 1015.1
20260906074204 16 360 0.0 0.0 0.00 0.00 0.00 91 1015.0
20260906073227 17 360 0.0 0.0 0.00 0.00 0.00 91 1015.1
20260906072204 17 360 0.0 0.0 0.00 0.00 0.00 91 1015.0
20260906071224 17 360 0.0 0.0 0.00 0.00 0.00 91 1014.9
20260906070204 17 360 0.0 0.0 0.00 0.00 0.00 91 1015.0
20260906065203 17 360 0.0 0.0 0.00 0.00 0.00 91 1015.2
20260906064205 17 360 0.0 0.0 0.00 0.00 0.00 91 1015.2
20260906063203 17 360 0.0 0.0 0.00 0.00 0.00 91 1015.1
20260906062204 17 360 0.0 0.0 0.00 0.00 0.00 91 1015.1
20260906061203 17 360 0.0 0.0 0.00 0.00 0.00 91 1015.2
20260906060205 17 360 0.0 0.0 0.00 0.00 0.00 91 1015.1
20260906055204 17 360 0.0 0.0 0.00 0.00 0.00 91 1015.2
20260906054205 17 360 0.0 0.0 0.00 0.00 0.00 91 1015.2
20260906053204 17 360 0.0 0.0 0.00 0.00 0.00 90 1015.2
20260906052203 17 360 0.0 0.0 0.00 0.00 0.00 90 1015.2
20260906051206 17 360 0.0 0.0 0.00 0.00 0.00 90 1015.0
20260906050225 17 360 0.0 0.0 0.00 0.00 0.00 90 1015.0
20260906045225 17 360 0.0 0.0 0.00 0.00 0.00 90 1015.0
20260906044204 17 360 0.0 0.0 0.00 0.00 0.00 89 1015.0
20260906043203 17 360 0.0 0.0 0.00 0.00 0.00 89 1014.9
20260906042204 17 360 0.0 0.0 0.00 0.00 0.00 89 1015.0
20260906041203 17 360 0.0 0.0 0.00 0.00 0.00 89 1014.9
20260906040225 17 360 0.0 0.0 0.00 0.00 0.00 89 1014.8
20260906035205 17 360 0.0 0.0 0.00 0.00 0.00 89 1014.9
20260906034224 17 360 0.0 0.0 0.00 0.00 0.00 89 1014.9
20260906033203 17 360 0.0 0.0 0.00 0.00 0.00 88 1014.8
20260906032204 17 360 0.0 0.0 0.00 0.00 0.00 88 1014.7
20260906031204 17 360 0.0 0.0 0.00 0.00 0.00 88 1014.7
20260906030203 17 360 0.0 0.0 0.00 0.00 0.00 87 1014.6
20260906025205 17 360 0.0 0.0 0.00 0.00 0.00 87 1014.6
20260906024205 17 360 0.0 0.0 0.00 0.00 0.00 87 1014.7
20260906023203 17 360 0.0 0.0 0.00 0.00 0.00 86 1014.7
20260906022225 17 360 0.0 0.0 0.00 0.00 0.00 85 1014.6
20260906021225 17 360 0.0 0.0 0.00 0.00 0.00 84 1014.7
20260906015203 17 360 0.0 0.0 0.00 0.00 0.00 83 1014.4
20260906014205 17 360 0.0 0.0 0.00 0.00 0.00 82 1014.5
20260906013203 18 360 0.0 0.0 0.00 0.00 0.00 82 1014.4
20260906012225 18 360 0.0 0.0 0.00 0.00 0.00 82 1014.3
20260906011204 18 360 0.0 0.0 0.00 0.00 0.00 81 1014.3
20260906010204 18 360 0.0 0.0 0.00 0.00 0.00 81 1014.2
20260906005203 18 360 0.0 0.0 0.00 0.00 0.00 78 1014.1
20260906004204 18 360 0.0 0.0 0.00 0.00 0.00 78 1014.0
20260906003203 19 360 0.0 0.0 0.00 0.00 0.00 77 1014.1
20260906002204 19 360 0.0 0.0 0.00 0.00 0.00 76 1014.0
20260906001226 20 360 0.0 0.0 0.00 0.00 0.00 74 1013.9
20260906000226 20 360 0.0 0.0 0.00 0.00 0.00 74 1013.8
20260905235225 20 360 0.0 0.0 0.00 0.00 0.00 73 1013.8
20260905234226 21 360 0.0 0.0 0.00 0.00 0.00 70 1013.9
20260905233203 21 360 0.0 0.0 0.00 0.00 0.00 69 1014.0
20260905232204 22 360 0.0 0.0 0.00 0.00 0.00 68 1014.0
20260905231203 22 359 0.0 4.8 0.00 0.00 0.00 67 1013.9
20260905230204 22 359 0.0 8.0 0.00 0.00 0.00 66 1014.0
20260905225204 22 359 4.8 8.0 0.00 0.00 0.00 64 1013.9
20260905224204 22 359 4.8 9.7 0.00 0.00 0.00 64 1013.9
20260905223205 22 359 0.0 3.2 0.00 0.00 0.00 64 1013.8
20260905222203 22 359 4.8 9.7 0.00 0.00 0.00 64 1013.8
20260905221204 22 359 4.8 9.7 0.00 0.00 0.00 64 1013.9
20260905215204 22 360 0.0 6.4 0.00 0.00 0.00 65 1013.7
20260905214204 22 360 0.0 6.4 0.00 0.00 0.00 64 1013.6
20260905213204 22 359 4.8 14.5 0.00 0.00 0.00 64 1013.6
20260905212204 23 359 4.8 12.9 0.00 0.00 0.00 63 1013.5
20260905211204 23 359 1.6 12.9 0.00 0.00 0.00 64 1013.5
20260905210225 23 359 8.0 16.1 0.00 0.00 0.00 63 1013.4
20260905205206 23 359 4.8 14.5 0.00 0.00 0.00 63 1013.4
20260905204204 23 359 1.6 16.1 0.00 0.00 0.00 64 1013.4
20260905203205 23 359 1.6 9.7 0.00 0.00 0.00 64 1013.4
20260905202204 23 359 4.8 12.9 0.00 0.00 0.00 64 1013.4
20260905201203 22 359 4.8 8.0 0.00 0.00 0.00 64 1013.4
20260905200204 22 359 6.4 12.9 0.00 0.00 0.00 66 1013.5
20260905195203 22 360 0.0 6.4 0.00 0.00 0.00 65 1013.5
20260905194225 23 359 0.0 16.1 0.00 0.00 0.00 64 1013.6
20260905193225 23 359 6.4 12.9 0.00 0.00 0.00 64 1013.5
20260905192204 22 360 0.0 8.0 0.00 0.00 0.00 65 1013.5
20260905191204 23 359 0.0 9.7 0.00 0.00 0.00 65 1013.7
20260905190203 24 359 6.4 12.9 0.00 0.00 0.00 63 1013.9
20260905185204 24 1 1.6 12.9 0.00 0.00 0.00 63 1013.9
20260905184204 24 359 6.4 9.7 0.00 0.00 0.00 63 1014.0
20260905183204 24 359 4.8 17.7 0.00 0.00 0.00 62 1013.9
20260905182204 24 359 4.8 16.1 0.00 0.00 0.00 64 1013.9
20260905181225 24 359 1.6 9.7 0.00 0.00 0.00 64 1013.7
20260905180203 23 7 3.2 8.0 0.00 0.00 0.00 67 1013.6
20260905175203 23 360 0.0 6.4 0.00 0.00 0.00 66 1013.7
20260905174205 23 0 1.6 12.9 0.00 0.00 0.00 66 1013.6
20260905173204 23 359 4.8 17.7 0.00 0.00 0.00 66 1013.7
20260905172225 23 359 4.8 8.0 0.00 0.00 0.00 66 1013.7
20260905171205 23 359 3.2 14.5 0.00 0.00 0.00 65 1013.8
20260905170204 23 359 3.2 9.7 0.00 0.00 0.00 66 1013.7
20260905165203 23 359 4.8 16.1 0.00 0.00 0.00 67 1013.8
20260905164226 22 359 4.8 17.7 0.00 0.00 0.00 68 1013.7
20260905163203 22 359 4.8 8.0 0.00 0.00 0.00 73 1013.8
20260905162204 22 359 1.6 12.9 0.00 0.00 0.00 71 1013.9
20260905161226 22 359 4.8 9.7 0.00 0.00 0.00 73 1013.8
20260905160205 22 1 8.0 19.3 0.00 0.00 0.00 74 1013.9
20260905155204 21 0 6.4 17.7 0.00 0.00 0.00 74 1014.0
20260905154203 21 0 6.4 14.5 0.00 0.00 0.00 76 1014.0
20260905153204 21 359 0.0 9.7 0.00 0.00 0.00 77 1013.9
20260905152224 21 0 3.2 9.7 0.00 0.00 0.00 78 1014.0
20260905151205 21 359 3.2 14.5 0.00 0.00 0.00 80 1014.2
20260905150204 20 359 8.0 16.1 0.00 0.00 0.00 80 1014.2
20260905145226 20 359 3.2 16.1 0.00 0.00 0.00 82 1014.1
20260905144204 19 359 1.6 8.0 0.00 0.00 0.00 83 1014.1
20260905143225 19 359 1.6 8.0 0.00 0.00 0.00 84 1014.1
20260905142203 19 360 0.0 6.4 0.00 0.00 0.00 85 1014.1
20260905141204 18 359 0.0 8.0 0.00 0.00 0.00 88 1014.1
20260905140203 18 2 3.2 12.9 0.00 0.00 0.00 89 1014.1
20260905135205 18 359 6.4 9.7 0.00 0.00 0.00 91 1014.2
20260905134203 18 359 0.0 4.8 0.00 0.00 0.00 93 1014.1
20260905133204 18 2 1.6 8.0 0.00 0.00 0.00 94 1014.2